Theta_e
305 299 295 298 300 298 298 296 295 299 301 297 296 296 298 299 296 295 296 300 306 312 317 318 319 320 322 321 321 322 323 325 324 320 319 319 319 320 319 320 320 320 320 320
299 295 300 302 301 301 299 295 295 298 299 298 296 296 298 298 300 299 300 298 299 303 305 311 317 319 321 322 322 322 322 325 326 325 324 323 322 322 323 322 320 320 319 319
295 298 302 301 300 298 298 296 295 295 295 295 292 293 294 297 299 301 300 301 301 302 302 303 306 318 320 321 322 322 322 323 326 328 326 321 320 317 318 320 321 321 319 318
298 300 299 299 298 300 294 299 298 295 295 290 296 289 294 298 297 298 302 302 303 302 303 306 303 308 318 321 324 323 323 323 324 326 325 323 323 322 323 323 323 323 321 320
294 295 296 296 297 300 296 300 299 296 295 290 287 286 291 295 295 298 301 304 306 306 304 304 303 304 312 320 322 322 322 323 323 324 325 324 322 324 324 321 319 321 321 322
293 296 298 298 300 301 300 296 294 294 292 287 292 289 290 291 296 300 302 304 306 307 304 304 304 302 303 313 318 320 319 320 322 322 323 323 322 322 320 319 319 320 320 320
290 291 298 301 297 300 299 295 286 285 284 284 290 286 294 294 294 298 301 302 303 305 302 302 301 300 300 305 312 315 317 318 320 320 321 323 322 322 321 320 319 319 317 318
284 283 295 302 298 296 296 295 284 277 280 284 286 285 292 298 301 297 298 298 296 295 296 297 300 302 302 302 309 314 315 317 317 319 320 321 322 322 322 321 321 320 320 320
285 287 298 300 299 300 296 292 294 282 272 277 283 287 292 293 293 299 299 294 295 295 295 296 297 299 300 300 303 310 313 315 315 317 319 319 320 321 321 321 320 321 320 320
288 282 294 298 301 300 297 300 289 288 278 274 280 282 289 290 294 294 293 295 297 296 294 294 296 296 296 298 299 303 308 311 313 314 316 317 318 319 319 318 318 319 319 317
289 288 287 295 294 294 294 293 293 292 285 280 281 285 289 293 295 297 299 301 300 298 294 292 293 293 293 292 294 296 302 305 307 310 312 313 313 314 315 316 316 316 316 317
290 287 281 285 297 299 299 295 295 288 285 287 282 286 291 295 297 298 299 301 301 296 293 292 292 291 292 292 292 294 298 303 305 306 306 307 307 308 310 311 312 314 318 319
291 286 280 284 291 294 294 296 296 295 288 287 284 287 289 290 292 293 294 296 294 294 292 291 290 291 292 292 293 293 293 294 294 294 295 295 296 296 296 296 297 299 300 301
295 286 284 279 285 291 291 294 296 294 288 288 288 291 294 288 289 291 292 293 292 294 292 291 290 291 292 292 293 293 293 294 294 295 295 295 295 296 296 296 296 296 297 298
292 284 286 287 288 289 290 292 294 293 294 289 291 291 295 297 296 292 294 291 291 292 292 292 291 291 291 291 292 292 293 293 294 294 294 294 294 295 295 294 294 296 299 298
291 284 287 284 287 288 286 290 295 295 295 294 294 293 300 301 292 289 291 290 291 291 292 291 291 291 291 292 292 292 292 293 293 293 293 293 293 292 292 291 291 295 294 295
286 282 280 277 286 286 283 287 290 294 296 296 291 296 300 292 294 297 291 290 293 293 293 293 293 293 294 291 291 291 292 292 293 293 292 291 290 289 289 289 288 288 289 290
281 282 282 278 281 277 288 294 294 293 295 298 298 299 300 299 297 294 294 294 293 293 293 293 293 293 290 290 290 290 291 291 291 290 289 288 288 288 288 288 288 290 288 288
286 283 280 278 278 285 286 286 291 291 292 298 297 300 301 295 291 292 293 294 295 294 296 295 294 292 289 290 290 291 290 289 289 289 289 288 288 285 287 289 289 290 286 286
285 286 282 280 277 277 288 293 297 296 287 298 299 299 300 293 290 297 299 292 292 292 291 291 290 290 290 289 289 289 288 288 288 288 288 287 285 287 287 288 288 286 286 286
280 281 278 279 278 281 289 290 296 285 288 298 299 300 301 297 300 304 299 293 294 292 291 290 290 291 291 288 288 288 287 287 287 286 285 283 283 286 287 286 285 285 285 285
278 280 279 280 278 276 292 290 289 295 299 294 299 300 299 302 303 302 301 296 291 289 290 290 289 289 286 286 288 286 287 286 283 283 283 283 285 285 286 286 285 285 285 285
279 285 284 286 284 287 291 295 297 293 298 296 295 301 301 301 301 302 298 292 291 290 289 289 289 285 283 284 286 287 285 282 282 284 284 285 285 286 286 286 285 285 285 285
287 290 288 283 291 285 288 291 296 289 293 297 294 296 296 299 300 297 296 288 287 286 286 285 285 284 282 282 284 284 282 281 285 284 284 285 285 285 285 285 285 285 285 284
287 287 289 287 286 284 286 288 289 288 287 287 287 288 293 294 292 293 291 288 287 287 284 286 286 285 283 283 282 282 281 284 284 283 283 285 285 284 284 283 284 284 283 282
276 275 285 287 282 283 287 288 290 288 288 288 288 285 286 290 291 287 287 287 286 285 283 282 281 282 281 281 281 281 282 284 283 282 283 284 284 283 283 282 281 286 287 288
Wind_Speed
10 12 19 31 19 5 8 5 14 10 4 7 15 15 10 6 5 9 9 9 10 13 14 7 9 10 9 10 12 13 12 12 9 6 6 5 7 6 4 6 8 8 7 8
7 18 26 18 13 16 12 13 13 5 4 6 5 15 16 7 9 9 13 11 12 10 9 8 10 11 14 15 15 14 16 14 12 9 8 5 5 5 6 6 7 8 8 8
20 26 20 19 19 17 18 17 8 5 4 2 3 11 8 7 11 9 9 9 10 14 14 11 10 15 14 15 16 16 16 15 14 14 6 3 2 1 3 4 6 9 10 10
21 27 19 16 24 17 24 9 6 6 6 10 8 16 10 11 13 9 17 14 16 13 11 13 10 12 15 18 15 16 15 16 15 15 11 13 11 12 10 8 7 7 10 11
6 11 23 23 24 24 16 7 8 7 7 1 4 4 7 8 11 12 19 19 19 17 16 18 13 15 15 14 15 15 15 15 14 15 16 12 13 10 7 5 7 9 8 11
11 11 16 26 16 22 6 7 4 2 2 11 17 9 11 11 12 14 17 14 20 16 14 12 11 9 8 10 12 11 12 14 14 16 17 16 16 13 7 8 8 7 7 6
20 19 17 11 14 18 12 12 6 11 9 16 10 7 26 4 9 11 18 18 17 14 11 13 13 11 10 11 10 10 12 14 14 15 15 17 17 15 15 12 9 8 6 7
16 18 19 21 20 21 31 25 7 11 11 14 5 14 14 11 15 11 15 11 6 9 9 10 12 13 13 13 12 12 12 14 13 15 16 14 15 10 10 10 8 8 9 8
6 8 12 10 9 23 22 22 14 6 4 3 6 13 9 8 9 15 15 7 11 11 10 12 10 10 10 9 11 13 12 12 10 13 11 11 11 11 11 10 7 8 7 6
9 10 11 24 10 16 15 22 15 6 10 7 6 10 17 12 14 11 11 14 15 11 9 8 8 9 7 8 7 8 8 10 9 9 9 9 10 10 9 7 9 9 7 6
10 9 7 12 18 18 15 15 10 8 7 6 11 15 10 16 16 18 19 19 19 14 11 8 8 7 7 6 7 8 8 8 7 8 8 8 6 6 6 6 6 6 6 6
17 5 19 25 15 17 25 20 23 14 16 15 2 17 4 10 18 19 20 22 17 9 9 8 8 8 8 8 7 7 7 8 8 7 6 7 5 5 5 4 3 2 4 4
15 9 14 8 15 4 28 23 21 17 3 22 18 22 3 4 6 9 9 9 5 6 8 5 5 7 7 7 7 7 7 7 7 6 7 6 6 5 5 5 4 3 3 3
15 11 12 18 12 7 18 27 31 28 20 19 21 31 23 5 8 8 9 8 8 9 10 9 8 9 8 8 8 7 7 7 7 7 7 6 6 5 4 3 3 3 3 2
10 7 19 24 27 21 16 29 25 29 31 27 30 34 35 18 11 10 14 5 7 11 13 13 10 8 8 8 7 7 7 7 7 7 7 7 5 5 5 4 4 4 1 1
3 11 9 19 25 31 28 21 28 31 26 27 29 29 27 20 8 8 8 6 9 11 12 10 11 11 11 10 10 8 7 7 7 7 7 7 7 6 6 5 6 5 5 4
6 5 7 23 24 22 23 29 25 23 29 28 29 39 35 8 15 20 9 12 16 15 15 17 18 16 15 11 9 10 9 7 7 7 6 6 6 6 6 5 5 5 4 3
12 13 4 16 18 25 17 14 25 28 27 29 28 26 26 22 13 10 13 16 17 13 13 13 14 12 9 7 8 7 8 7 7 6 5 5 5 5 5 5 4 2 0 0
17 16 12 14 19 15 9 10 25 24 38 39 36 38 30 3 6 9 16 15 17 18 17 15 12 10 9 10 9 9 8 7 6 7 7 7 6 5 6 5 5 4 3 3
22 22 15 15 19 16 11 21 23 15 27 27 31 38 32 9 9 24 18 11 11 9 8 11 11 8 10 8 9 9 8 8 9 8 7 6 6 6 5 5 4 3 2 2
6 11 22 22 20 17 15 8 15 25 14 28 32 38 31 21 28 37 9 11 14 12 13 10 12 15 14 11 10 9 8 9 6 8 7 6 6 5 3 4 2 3 3 3
19 12 13 19 17 23 23 10 21 27 33 8 24 27 17 29 31 30 20 15 14 15 13 12 13 11 8 10 11 9 10 7 6 8 8 6 6 5 3 6 3 4 4 4
24 25 18 16 20 4 8 20 17 4 17 18 10 22 21 28 30 33 15 12 16 17 15 13 15 12 7 8 8 11 8 10 9 10 9 7 6 5 5 6 5 4 3 3
15 21 21 6 27 10 10 9 14 4 8 18 14 13 14 24 26 18 13 10 11 11 11 11 14 13 11 8 7 7 10 10 10 11 9 7 7 6 5 4 4 4 3 4
5 12 24 23 8 4 7 8 6 4 2 4 3 3 10 12 10 14 12 12 12 12 10 14 16 14 13 11 9 10 11 12 11 10 9 8 6 6 6 5 4 3 2 2
5 3 9 13 6 5 4 4 10 10 8 9 8 3 5 6 10 8 9 10 11 12 11 10 8 12 12 12 11 10 10 10 12 10 8 7 7 6 7 6 6 11 8 5
Wind_Direction
186 201 208 209 212 204 174 196 232 235 177 160 222 251 261 247 238 253 237 227 220 224 238 208 202 198 191 189 189 192 192 194 184 182 192 208 216 212 211 213 207 207 203 200
194 227 216 215 212 215 230 213 224 272 142 194 266 255 252 206 235 209 233 233 231 230 225 218 199 194 202 202 203 199 203 194 194 199 202 200 187 210 211 201 209 209 202 199
215 220 209 211 213 210 216 226 211 235 91 307 333 263 239 243 245 239 232 230 233 226 231 227 203 201 201 208 205 206 202 197 198 202 190 151 107 79 178 198 212 213 204 202
220 228 196 203 214 201 218 187 170 167 168 232 187 261 238 230 227 227 245 227 234 225 228 234 213 204 202 211 207 207 206 201 198 192 196 202 210 221 221 216 209 211 202 210
235 214 207 209 208 198 236 161 184 185 207 237 216 272 260 179 232 230 241 237 232 226 217 226 211 210 209 207 202 204 201 201 198 193 201 201 209 223 223 204 202 208 209 214
265 310 256 213 211 207 131 119 84 45 148 240 228 214 223 211 205 230 240 240 241 231 225 223 217 204 209 208 201 194 191 204 195 195 201 201 209 214 205 210 214 218 219 216
258 254 254 190 191 189 190 161 194 214 225 240 185 195 236 226 208 213 229 234 235 235 215 211 209 207 206 195 193 189 188 202 198 197 200 206 211 209 214 215 215 210 209 217
231 248 219 192 203 190 199 189 185 188 195 224 155 226 242 218 210 215 229 233 243 243 229 217 214 212 211 200 191 193 192 206 195 200 206 208 215 212 218 223 219 216 221 224
218 242 181 220 179 175 190 206 197 100 13 61 194 277 283 252 244 223 231 231 240 244 232 222 211 202 204 190 190 191 195 205 195 200 201 205 214 213 217 219 211 224 219 227
224 281 231 204 220 216 180 200 191 192 174 214 227 247 232 195 215 234 245 236 240 232 248 238 206 200 202 198 188 180 190 196 194 187 190 199 203 206 213 207 216 219 222 208
218 210 273 228 200 194 194 191 218 211 161 198 251 246 197 199 208 217 225 229 227 223 213 218 201 180 165 148 165 181 182 177 181 184 186 192 193 193 196 208 213 211 218 209
198 225 245 254 250 211 216 205 200 205 205 219 249 251 192 215 207 207 213 223 223 205 183 201 178 170 160 163 160 173 174 180 193 181 176 188 174 183 204 225 232 243 245 229
177 210 242 270 208 215 210 217 199 212 285 222 228 256 348 240 238 239 249 252 221 179 170 159 161 181 174 168 169 174 172 175 165 158 163 167 184 189 209 219 227 244 279 305
164 215 228 231 280 247 203 211 213 212 224 234 223 250 238 252 236 248 249 237 200 189 179 179 189 191 176 176 178 171 174 169 163 162 163 168 181 187 187 174 148 129 119 130
207 248 220 233 251 267 265 229 213 216 217 217 226 229 237 229 240 243 244 212 197 203 199 193 182 186 182 179 179 178 177 177 175 169 162 181 173 160 151 153 137 120 171 66
256 261 277 238 231 245 256 271 218 225 228 234 238 246 249 230 190 231 236 208 215 214 208 193 189 183 183 188 189 178 179 181 172 171 171 161 158 160 168 156 144 166 178 182
196 230 236 268 251 235 244 231 251 220 222 222 225 235 245 219 213 224 214 200 216 211 198 197 197 189 187 187 173 185 180 162 173 170 167 167 160 163 165 156 152 159 171 178
256 262 204 266 282 230 234 189 214 247 235 225 239 250 239 234 230 208 214 217 222 198 192 202 197 189 182 173 172 146 161 168 164 167 158 158 156 154 146 137 125 108 100 99
226 242 255 255 264 291 246 181 195 203 231 221 225 242 242 180 85 258 225 217 213 201 199 196 183 171 159 171 167 151 149 145 153 177 174 169 160 147 144 157 165 165 154 129
215 216 221 235 261 242 223 227 211 179 235 225 214 233 229 134 212 238 201 187 208 210 183 170 163 147 156 170 149 145 157 163 193 176 164 149 137 145 155 156 160 127 97 121
196 215 220 225 242 253 261 197 145 204 217 225 210 223 221 208 221 241 158 203 200 195 183 153 164 171 176 156 154 158 157 194 172 139 126 111 109 119 146 124 89 131 116 124
228 216 213 224 231 254 228 162 178 210 221 176 209 223 201 219 226 238 216 201 178 178 162 172 165 168 158 149 146 153 178 151 137 118 112 119 128 125 149 140 151 125 126 120
234 222 223 205 221 228 218 206 212 223 215 224 205 210 204 216 226 234 220 189 193 184 174 172 163 149 146 155 154 160 159 142 144 123 126 133 125 140 159 144 131 113 113 93
240 226 223 179 237 223 203 268 213 200 226 207 224 216 196 214 227 230 210 182 180 165 168 154 143 153 159 163 157 140 142 145 137 126 131 137 141 153 140 121 130 126 129 125
201 180 217 236 243 322 237 210 207 195 164 167 161 204 207 209 217 208 200 185 175 173 153 164 167 166 159 153 145 141 144 148 134 131 143 154 149 168 130 92 94 81 39 91
24 9 232 240 8 282 249 218 202 178 182 198 184 199 237 201 209 176 186 175 160 159 150 146 139 140 150 150 139 139 150 147 138 139 155 160 162 158 112 111 92 62 71 105